Time,TemperatureF,DewpointF,PressureIn,WindDirection,WindDirectionDegrees,WindSpeedMPH,WindSpeedGustMPH,Humidity,HourlyPrecipIn,Conditions,Clouds,dailyrainin,SoftwareType,DateUTC
2013-08-03 00:03:00,61.3,52.6,29.86,South,184,4.0,6.0,73,0.00,,,0.00,Wunderground v.1.15,2013-08-03 07:03:00,
2013-08-03 00:08:00,61.3,52.6,29.86,South,188,4.0,9.0,73,0.00,,,0.00,Wunderground v.1.15,2013-08-03 07:08:00,
2013-08-03 00:13:00,61.2,52.5,29.86,SSW,204,1.0,5.0,73,0.00,,,0.00,Wunderground v.1.15,2013-08-03 07:13:00,
2013-08-03 00:19:00,61.1,52.4,29.86,South,191,7.0,7.0,73,0.00,,,0.00,Wunderground v.1.15,2013-08-03 07:19:00,
2013-08-03 00:24:00,61.0,52.3,29.86,South,182,2.0,7.0,73,0.00,,,0.00,Wunderground v.1.15,2013-08-03 07:24:00,
2013-08-03 00:29:00,61.0,52.7,29.86,South,186,5.0,9.0,74,0.00,,,0.00,Wunderground v.1.15,2013-08-03 07:29:00,
2013-08-03 00:35:00,60.8,52.5,29.86,SSE,163,9.0,9.0,74,0.00,,,0.00,Wunderground v.1.15,2013-08-03 07:35:00,
2013-08-03 00:40:00,60.5,52.2,29.86,SW,220,8.0,8.0,74,0.00,,,0.00,Wunderground v.1.15,2013-08-03 07:40:00,
2013-08-03 00:45:00,60.3,52.3,29.86,South,184,6.0,9.0,75,0.00,,,0.00,Wunderground v.1.15,2013-08-03 07:45:00,
2013-08-03 00:50:00,59.9,52.3,29.86,SSW,201,3.0,6.0,76,0.00,,,0.00,Wunderground v.1.15,2013-08-03 07:50:00,
2013-08-03 00:55:00,59.7,52.5,29.86,SSW,197,10.0,11.0,77,0.00,,,0.00,Wunderground v.1.15,2013-08-03 07:55:00,
2013-08-03 01:00:00,59.6,52.4,29.86,South,177,8.0,8.0,77,0.00,,,0.00,Wunderground v.1.15,2013-08-03 08:00:00,
2013-08-03 01:05:00,59.5,52.3,29.86,SSW,209,2.0,11.0,77,0.00,,,0.00,Wunderground v.1.15,2013-08-03 08:05:00,
2013-08-03 01:11:00,59.4,52.2,29.86,SSW,210,10.0,10.0,77,0.00,,,0.00,Wunderground v.1.15,2013-08-03 08:11:00,
2013-08-03 01:16:00,59.4,52.2,29.86,SW,215,1.0,10.0,77,0.00,,,0.00,Wunderground v.1.15,2013-08-03 08:16:00,
2013-08-03 01:21:00,59.4,52.5,29.86,South,182,4.0,5.0,78,0.00,,,0.00,Wunderground v.1.15,2013-08-03 08:21:00,
2013-08-03 01:26:00,59.3,52.4,29.86,SSW,194,5.0,6.0,78,0.00,,,0.00,Wunderground v.1.15,2013-08-03 08:26:00,
2013-08-03 01:31:00,59.3,52.4,29.86,SW,217,4.0,5.0,78,0.00,,,0.00,Wunderground v.1.15,2013-08-03 08:31:00,
2013-08-03 01:37:00,59.3,52.4,29.86,SSW,194,4.0,7.0,78,0.00,,,0.00,Wunderground v.1.15,2013-08-03 08:37:00,
2013-08-03 01:42:00,59.2,52.3,29.85,SSW,207,7.0,7.0,78,0.00,,,0.00,Wunderground v.1.15,2013-08-03 08:42:00,
2013-08-03 01:47:00,59.1,52.2,29.85,SSW,194,9.0,9.0,78,0.00,,,0.00,Wunderground v.1.15,2013-08-03 08:47:00,
2013-08-03 01:52:00,59.0,52.5,29.85,South,188,4.0,6.0,79,0.00,,,0.00,Wunderground v.1.15,2013-08-03 08:52:00,
2013-08-03 01:57:00,59.0,52.5,29.85,SSW,211,4.0,6.0,79,0.00,,,0.00,Wunderground v.1.15,2013-08-03 08:57:00,
2013-08-03 02:02:00,58.9,52.4,29.85,South,189,4.0,7.0,79,0.00,,,0.00,Wunderground v.1.15,2013-08-03 09:02:00,
2013-08-03 02:07:00,58.8,52.3,29.85,SSW,194,7.0,9.0,79,0.00,,,0.00,Wunderground v.1.15,2013-08-03 09:07:00,
2013-08-03 02:12:00,58.7,52.2,29.85,South,190,4.0,9.0,79,0.00,,,0.00,Wunderground v.1.15,2013-08-03 09:12:00,
2013-08-03 02:17:00,58.6,52.4,29.86,SW,222,9.0,10.0,80,0.00,,,0.00,Wunderground v.1.15,2013-08-03 09:17:00,
2013-08-03 02:22:00,58.5,52.4,29.86,South,183,6.0,11.0,80,0.00,,,0.00,Wunderground v.1.15,2013-08-03 09:22:00,
2013-08-03 02:27:00,58.4,52.3,29.86,SSW,198,3.0,11.0,80,0.00,,,0.00,Wunderground v.1.15,2013-08-03 09:27:00,
2013-08-03 02:32:00,58.4,52.6,29.85,SSW,213,6.0,10.0,81,0.00,,,0.00,Wunderground v.1.15,2013-08-03 09:32:00,
2013-08-03 02:37:00,58.4,52.6,29.85,SSW,200,4.0,11.0,81,0.00,,,0.00,Wunderground v.1.15,2013-08-03 09:37:00,
2013-08-03 02:42:00,58.4,52.6,29.85,SSW,213,3.0,9.0,81,0.00,,,0.00,Wunderground v.1.15,2013-08-03 09:42:00,
2013-08-03 02:47:00,58.4,52.6,29.85,SSW,207,5.0,10.0,81,0.00,,,0.00,Wunderground v.1.15,2013-08-03 09:47:00,
2013-08-03 02:52:00,58.4,52.6,29.85,South,190,4.0,7.0,81,0.00,,,0.00,Wunderground v.1.15,2013-08-03 09:52:00,
2013-08-03 02:57:00,58.4,52.6,29.86,SSW,194,5.0,7.0,81,0.00,,,0.00,Wunderground v.1.15,2013-08-03 09:57:00,
2013-08-03 03:02:00,58.5,52.7,29.86,South,188,4.0,5.0,81,0.00,,,0.00,Wunderground v.1.15,2013-08-03 10:02:00,
2013-08-03 03:07:00,58.5,52.7,29.86,SSW,211,4.0,8.0,81,0.00,,,0.00,Wunderground v.1.15,2013-08-03 10:07:00,
2013-08-03 03:12:00,58.5,52.4,29.85,SSW,198,5.0,7.0,80,0.00,,,0.00,Wunderground v.1.15,2013-08-03 10:12:00,
2013-08-03 03:17:00,58.5,52.4,29.86,SSW,199,6.0,7.0,80,0.00,,,0.00,Wunderground v.1.15,2013-08-03 10:17:00,
2013-08-03 03:22:00,58.5,52.4,29.86,SSW,202,3.0,7.0,80,0.00,,,0.00,Wunderground v.1.15,2013-08-03 10:22:00,
2013-08-03 03:27:00,58.4,52.3,29.86,SSW,198,3.0,7.0,80,0.00,,,0.00,Wunderground v.1.15,2013-08-03 10:27:00,
2013-08-03 03:32:00,58.4,52.3,29.86,SSW,200,1.0,6.0,80,0.00,,,0.00,Wunderground v.1.15,2013-08-03 10:32:00,
2013-08-03 03:37:00,58.4,52.6,29.86,SSW,202,3.0,6.0,81,0.00,,,0.00,Wunderground v.1.15,2013-08-03 10:37:00,
2013-08-03 03:42:00,58.4,52.3,29.86,SSW,192,3.0,7.0,80,0.00,,,0.00,Wunderground v.1.15,2013-08-03 10:42:00,
2013-08-03 03:47:00,58.3,52.5,29.86,South,191,1.0,7.0,81,0.00,,,0.00,Wunderground v.1.15,2013-08-03 10:47:00,
2013-08-03 03:52:00,58.2,52.4,29.86,SSW,192,2.0,6.0,81,0.00,,,0.00,Wunderground v.1.15,2013-08-03 10:52:00,
2013-08-03 03:57:00,58.2,52.4,29.86,SSW,203,2.0,8.0,81,0.00,,,0.00,Wunderground v.1.15,2013-08-03 10:57:00,
2013-08-03 04:02:00,58.2,52.4,29.86,SSW,203,1.0,4.0,81,0.00,,,0.00,Wunderground v.1.15,2013-08-03 11:02:00,
2013-08-03 04:07:00,58.2,52.4,29.86,SSW,203,3.0,6.0,81,0.00,,,0.00,Wunderground v.1.15,2013-08-03 11:07:00,
2013-08-03 04:12:00,58.1,52.3,29.86,SSW,203,2.0,6.0,81,0.00,,,0.00,Wunderground v.1.15,2013-08-03 11:12:00,
2013-08-03 04:17:00,58.2,52.4,29.87,SSW,202,4.0,6.0,81,0.00,,,0.00,Wunderground v.1.15,2013-08-03 11:17:00,
2013-08-03 04:23:00,58.1,52.3,29.87,SSW,198,2.0,5.0,81,0.00,,,0.00,Wunderground v.1.15,2013-08-03 11:23:00,
2013-08-03 04:27:00,58.1,52.3,29.86,SSW,194,0.0,5.0,81,0.00,,,0.00,Wunderground v.1.15,2013-08-03 11:27:00,
2013-08-03 04:32:00,58.0,52.2,29.87,SSW,194,4.0,4.0,81,0.00,,,0.00,Wunderground v.1.15,2013-08-03 11:32:00,
2013-08-03 04:37:00,57.9,52.1,29.87,SSW,196,3.0,7.0,81,0.00,,,0.00,Wunderground v.1.15,2013-08-03 11:37:00,
2013-08-03 04:43:00,57.9,52.4,29.87,SSW,197,5.0,6.0,82,0.00,,,0.00,Wunderground v.1.15,2013-08-03 11:43:00,
2013-08-03 04:48:00,57.9,52.4,29.87,SSW,197,2.0,6.0,82,0.00,,,0.00,Wunderground v.1.15,2013-08-03 11:48:00,
2013-08-03 04:53:00,57.9,52.4,29.87,SSW,197,1.0,5.0,82,0.00,,,0.00,Wunderground v.1.15,2013-08-03 11:53:00,
2013-08-03 04:57:00,57.8,52.3,29.87,SSW,197,1.0,5.0,82,0.00,,,0.00,Wunderground v.1.15,2013-08-03 11:57:00,
2013-08-03 05:03:00,57.8,52.3,29.87,SSW,197,2.0,5.0,82,0.00,,,0.00,Wunderground v.1.15,2013-08-03 12:03:00,
2013-08-03 05:08:00,57.8,52.3,29.87,SSW,197,4.0,5.0,82,0.00,,,0.00,Wunderground v.1.15,2013-08-03 12:08:00,
2013-08-03 05:13:00,57.7,52.2,29.87,SSW,197,3.0,5.0,82,0.00,,,0.00,Wunderground v.1.15,2013-08-03 12:13:00,
2013-08-03 05:18:00,57.7,52.2,29.87,SSW,196,6.0,6.0,82,0.00,,,0.00,Wunderground v.1.15,2013-08-03 12:18:00,
2013-08-03 05:23:00,57.7,52.2,29.87,SSW,196,3.0,5.0,82,0.00,,,0.00,Wunderground v.1.15,2013-08-03 12:23:00,
2013-08-03 05:28:00,57.6,52.1,29.87,SSW,196,4.0,7.0,82,0.00,,,0.00,Wunderground v.1.15,2013-08-03 12:28:00,
2013-08-03 05:33:00,57.6,52.1,29.87,SSW,193,3.0,5.0,82,0.00,,,0.00,Wunderground v.1.15,2013-08-03 12:33:00,
2013-08-03 05:38:00,57.5,52.4,29.87,SSW,200,4.0,6.0,83,0.00,,,0.00,Wunderground v.1.15,2013-08-03 12:38:00,
2013-08-03 05:43:00,57.5,52.4,29.87,SSW,200,5.0,5.0,83,0.00,,,0.00,Wunderground v.1.15,2013-08-03 12:43:00,
2013-08-03 05:48:00,57.5,52.4,29.87,SSW,200,1.0,5.0,83,0.00,,,0.00,Wunderground v.1.15,2013-08-03 12:48:00,
2013-08-03 05:53:00,57.4,52.3,29.88,SSW,200,1.0,4.0,83,0.00,,,0.00,Wunderground v.1.15,2013-08-03 12:53:00,
2013-08-03 05:58:00,57.3,52.2,29.88,SSW,200,3.0,5.0,83,0.00,,,0.00,Wunderground v.1.15,2013-08-03 12:58:00,
2013-08-03 06:03:00,57.3,52.2,29.88,SSW,200,1.0,2.0,83,0.00,,,0.00,Wunderground v.1.15,2013-08-03 13:03:00,
2013-08-03 06:08:00,57.3,52.2,29.88,SSW,200,0.0,3.0,83,0.00,,,0.00,Wunderground v.1.15,2013-08-03 13:08:00,
2013-08-03 06:13:00,57.2,52.1,29.88,SSW,200,0.0,1.0,83,0.00,,,0.00,Wunderground v.1.15,2013-08-03 13:13:00,
2013-08-03 06:18:00,57.2,52.1,29.89,SSW,200,1.0,1.0,83,0.00,,,0.00,Wunderground v.1.15,2013-08-03 13:18:00,
2013-08-03 06:23:00,57.1,52.0,29.89,SSW,200,1.0,1.0,83,0.00,,,0.00,Wunderground v.1.15,2013-08-03 13:23:00,
2013-08-03 06:28:00,57.0,51.9,29.89,SSW,200,0.0,1.0,83,0.00,,,0.00,Wunderground v.1.15,2013-08-03 13:28:00,
2013-08-03 06:33:00,57.0,52.2,29.89,SSW,200,1.0,2.0,84,0.00,,,0.00,Wunderground v.1.15,2013-08-03 13:33:00,
2013-08-03 06:38:00,56.9,52.1,29.90,SSW,200,0.0,2.0,84,0.00,,,0.00,Wunderground v.1.15,2013-08-03 13:38:00,
2013-08-03 06:43:00,56.9,52.1,29.90,SSW,200,1.0,1.0,84,0.00,,,0.00,Wunderground v.1.15,2013-08-03 13:43:00,
2013-08-03 06:48:00,56.9,52.1,29.90,SSW,200,1.0,3.0,84,0.00,,,0.00,Wunderground v.1.15,2013-08-03 13:48:00,
2013-08-03 06:53:00,56.9,52.1,29.90,SSW,200,0.0,1.0,84,0.00,,,0.00,Wunderground v.1.15,2013-08-03 13:53:00,
2013-08-03 06:58:00,56.9,52.1,29.91,SSW,200,0.0,1.0,84,0.00,,,0.00,Wunderground v.1.15,2013-08-03 13:58:00,
2013-08-03 07:03:00,56.9,52.1,29.91,SSW,200,0.0,0.0,84,0.00,,,0.00,Wunderground v.1.15,2013-08-03 14:03:00,
2013-08-03 07:08:00,57.0,52.2,29.91,SSW,200,0.0,0.0,84,0.00,,,0.00,Wunderground v.1.15,2013-08-03 14:08:00,
2013-08-03 07:13:00,57.0,52.2,29.91,SSW,200,0.0,0.0,84,0.00,,,0.00,Wunderground v.1.15,2013-08-03 14:13:00,
2013-08-03 07:18:00,57.1,52.6,29.92,SSW,200,0.0,0.0,85,0.00,,,0.00,Wunderground v.1.15,2013-08-03 14:18:00,
2013-08-03 07:23:00,57.5,53.0,29.92,SSW,200,0.0,3.0,85,0.00,,,0.00,Wunderground v.1.15,2013-08-03 14:23:00,
2013-08-03 07:28:00,57.8,53.0,29.92,SSW,200,2.0,3.0,84,0.00,,,0.00,Wunderground v.1.15,2013-08-03 14:28:00,
2013-08-03 07:33:00,58.4,53.3,29.92,SSW,200,1.0,2.0,83,0.00,,,0.00,Wunderground v.1.15,2013-08-03 14:33:00,
2013-08-03 07:38:00,58.8,53.6,29.93,SSW,200,1.0,3.0,83,0.00,,,0.00,Wunderground v.1.15,2013-08-03 14:38:00,
2013-08-03 07:43:00,59.3,53.5,29.93,SSW,200,3.0,4.0,81,0.00,,,0.00,Wunderground v.1.15,2013-08-03 14:43:00,
2013-08-03 07:48:00,59.8,53.6,29.93,SSW,198,2.0,7.0,80,0.00,,,0.00,Wunderground v.1.15,2013-08-03 14:48:00,
2013-08-03 07:53:00,60.2,53.7,29.93,SSW,196,2.0,6.0,79,0.00,,,0.00,Wunderground v.1.15,2013-08-03 14:53:00,
2013-08-03 07:58:00,60.4,53.2,29.93,SSW,196,1.0,8.0,77,0.00,,,0.00,Wunderground v.1.15,2013-08-03 14:58:00,
2013-08-03 08:03:00,60.5,53.3,29.94,SSW,192,5.0,8.0,77,0.00,,,0.00,Wunderground v.1.15,2013-08-03 15:03:00,
2013-08-03 08:08:00,60.5,53.3,29.93,SSE,164,5.0,12.0,77,0.00,,,0.00,Wunderground v.1.15,2013-08-03 15:08:00,
2013-08-03 08:13:00,60.5,53.3,29.94,South,173,2.0,9.0,77,0.00,,,0.00,Wunderground v.1.15,2013-08-03 15:13:00,
2013-08-03 08:18:00,60.5,53.3,29.93,South,182,3.0,10.0,77,0.00,,,0.00,Wunderground v.1.15,2013-08-03 15:18:00,
2013-08-03 08:23:00,60.7,53.4,29.93,SW,215,7.0,9.0,77,0.00,,,0.00,Wunderground v.1.15,2013-08-03 15:23:00,
2013-08-03 08:28:00,61.0,53.4,29.93,South,169,3.0,11.0,76,0.00,,,0.00,Wunderground v.1.15,2013-08-03 15:28:00,
2013-08-03 08:33:00,61.4,53.8,29.93,South,176,4.0,10.0,76,0.00,,,0.00,Wunderground v.1.15,2013-08-03 15:33:00,
2013-08-03 08:38:00,61.7,54.1,29.93,South,169,4.0,11.0,76,0.00,,,0.00,Wunderground v.1.15,2013-08-03 15:38:00,
2013-08-03 08:43:00,62.0,54.0,29.93,South,190,6.0,10.0,75,0.00,,,0.00,Wunderground v.1.15,2013-08-03 15:43:00,
2013-08-03 08:48:00,62.4,54.0,29.93,SSW,213,6.0,10.0,74,0.00,,,0.00,Wunderground v.1.15,2013-08-03 15:48:00,
2013-08-03 08:53:00,62.7,54.3,29.94,SSE,168,5.0,9.0,74,0.00,,,0.00,Wunderground v.1.15,2013-08-03 15:53:00,
2013-08-03 08:58:00,62.9,54.1,29.94,SW,217,5.0,11.0,73,0.00,,,0.00,Wunderground v.1.15,2013-08-03 15:58:00,
2013-08-03 09:03:00,63.2,54.4,29.94,South,186,7.0,11.0,73,0.00,,,0.00,Wunderground v.1.15,2013-08-03 16:03:00,
2013-08-03 09:08:00,63.5,54.7,29.94,SSW,197,6.0,11.0,73,0.00,,,0.00,Wunderground v.1.15,2013-08-03 16:08:00,
2013-08-03 09:13:00,63.9,54.3,29.94,SSE,166,7.0,11.0,71,0.00,,,0.00,Wunderground v.1.15,2013-08-03 16:13:00,
2013-08-03 09:18:00,64.2,54.6,29.93,South,188,5.0,13.0,71,0.00,,,0.00,Wunderground v.1.15,2013-08-03 16:18:00,
2013-08-03 09:23:00,64.6,54.6,29.93,SW,216,7.0,8.0,70,0.00,,,0.00,Wunderground v.1.15,2013-08-03 16:23:00,
2013-08-03 09:28:00,65.1,55.1,29.93,South,184,6.0,8.0,70,0.00,,,0.00,Wunderground v.1.15,2013-08-03 16:28:00,
2013-08-03 09:33:00,65.6,55.2,29.93,South,188,7.0,10.0,69,0.00,,,0.00,Wunderground v.1.15,2013-08-03 16:33:00,
2013-08-03 09:38:00,66.0,55.1,29.93,SW,215,4.0,10.0,68,0.00,,,0.00,Wunderground v.1.15,2013-08-03 16:38:00,
2013-08-03 09:43:00,66.6,55.3,29.93,SSE,163,8.0,12.0,67,0.00,,,0.00,Wunderground v.1.15,2013-08-03 16:43:00,
2013-08-03 09:48:00,67.1,55.4,29.93,South,181,6.0,12.0,66,0.00,,,0.00,Wunderground v.1.15,2013-08-03 16:48:00,
2013-08-03 09:53:00,67.7,55.9,29.93,SSW,198,6.0,9.0,66,0.00,,,0.00,Wunderground v.1.15,2013-08-03 16:53:00,
2013-08-03 09:58:00,68.2,55.6,29.93,SSW,197,7.0,9.0,64,0.00,,,0.00,Wunderground v.1.15,2013-08-03 16:58:00,
2013-08-03 10:04:00,68.6,55.5,29.93,South,169,7.0,13.0,63,0.00,,,0.00,Wunderground v.1.15,2013-08-03 17:04:00,
2013-08-03 10:09:00,68.8,56.1,29.93,SSW,202,5.0,13.0,64,0.00,,,0.00,Wunderground v.1.15,2013-08-03 17:09:00,
2013-08-03 10:14:00,69.2,56.1,29.93,South,187,5.0,10.0,63,0.00,,,0.00,Wunderground v.1.15,2013-08-03 17:14:00,
2013-08-03 10:19:00,69.5,55.9,29.93,SSE,167,4.0,10.0,62,0.00,,,0.00,Wunderground v.1.15,2013-08-03 17:19:00,
2013-08-03 10:24:00,70.2,56.1,29.93,South,169,4.0,10.0,61,0.00,,,0.00,Wunderground v.1.15,2013-08-03 17:24:00,
2013-08-03 10:29:00,70.9,56.3,29.93,SSW,207,5.0,10.0,60,0.00,,,0.00,Wunderground v.1.15,2013-08-03 17:29:00,
2013-08-03 10:34:00,71.3,56.2,29.93,SSE,161,3.0,10.0,59,0.00,,,0.00,Wunderground v.1.15,2013-08-03 17:34:00,
2013-08-03 10:39:00,71.6,56.5,29.93,South,178,8.0,10.0,59,0.00,,,0.00,Wunderground v.1.15,2013-08-03 17:39:00,
2013-08-03 10:44:00,71.9,55.8,29.93,SSE,161,4.0,7.0,57,0.00,,,0.00,Wunderground v.1.15,2013-08-03 17:44:00,
2013-08-03 10:49:00,72.5,56.4,29.93,South,186,3.0,10.0,57,0.00,,,0.00,Wunderground v.1.15,2013-08-03 17:49:00,
2013-08-03 10:54:00,72.9,56.3,29.93,SSW,207,7.0,9.0,56,0.00,,,0.00,Wunderground v.1.15,2013-08-03 17:54:00,
2013-08-03 10:59:00,73.0,56.4,29.93,South,175,4.0,11.0,56,0.00,,,0.00,Wunderground v.1.15,2013-08-03 17:59:00,
2013-08-03 11:04:00,73.3,56.7,29.93,SE,137,5.0,8.0,56,0.00,,,0.00,Wunderground v.1.15,2013-08-03 18:04:00,
2013-08-03 11:09:00,73.6,56.4,29.93,SSE,165,6.0,11.0,55,0.00,,,0.00,Wunderground v.1.15,2013-08-03 18:09:00,
2013-08-03 11:14:00,73.7,56.5,29.93,South,176,4.0,10.0,55,0.00,,,0.00,Wunderground v.1.15,2013-08-03 18:14:00,
2013-08-03 11:19:00,74.1,56.4,29.93,South,190,5.0,10.0,54,0.00,,,0.00,Wunderground v.1.15,2013-08-03 18:19:00,
2013-08-03 11:24:00,74.2,56.5,29.93,SSW,194,6.0,10.0,54,0.00,,,0.00,Wunderground v.1.15,2013-08-03 18:24:00,
2013-08-03 11:29:00,74.2,56.5,29.93,South,180,6.0,11.0,54,0.00,,,0.00,Wunderground v.1.15,2013-08-03 18:29:00,
2013-08-03 11:34:00,74.3,56.6,29.92,SSW,194,7.0,11.0,54,0.00,,,0.00,Wunderground v.1.15,2013-08-03 18:34:00,
2013-08-03 11:39:00,74.4,56.7,29.92,SSE,161,7.0,12.0,54,0.00,,,0.00,Wunderground v.1.15,2013-08-03 18:39:00,
2013-08-03 11:44:00,74.8,56.5,29.92,SSW,196,5.0,10.0,53,0.00,,,0.00,Wunderground v.1.15,2013-08-03 18:44:00,
2013-08-03 11:49:00,75.3,56.5,29.92,SSW,192,5.0,10.0,52,0.00,,,0.00,Wunderground v.1.15,2013-08-03 18:49:00,
2013-08-03 11:54:00,75.4,57.1,29.92,SSE,166,3.0,13.0,53,0.00,,,0.00,Wunderground v.1.15,2013-08-03 18:54:00,
2013-08-03 11:59:00,75.5,56.6,29.92,SSE,165,7.0,13.0,52,0.00,,,0.00,Wunderground v.1.15,2013-08-03 18:59:00,
2013-08-03 12:04:00,75.7,56.8,29.92,SSW,194,8.0,12.0,52,0.00,,,0.00,Wunderground v.1.15,2013-08-03 19:04:00,
2013-08-03 12:09:00,75.8,57.4,29.92,SW,219,7.0,14.0,53,0.00,,,0.00,Wunderground v.1.15,2013-08-03 19:09:00,
2013-08-03 12:14:00,76.4,56.9,29.92,SSW,213,4.0,10.0,51,0.00,,,0.00,Wunderground v.1.15,2013-08-03 19:14:00,
2013-08-03 12:19:00,76.8,56.8,29.92,SSW,197,3.0,10.0,50,0.00,,,0.00,Wunderground v.1.15,2013-08-03 19:19:00,
2013-08-03 12:24:00,77.3,56.6,29.92,South,175,5.0,11.0,49,0.00,,,0.00,Wunderground v.1.15,2013-08-03 19:24:00,
2013-08-03 12:29:00,77.3,56.6,29.91,SSW,205,4.0,11.0,49,0.00,,,0.00,Wunderground v.1.15,2013-08-03 19:29:00,
2013-08-03 12:34:00,77.5,56.8,29.91,SSE,165,7.0,13.0,49,0.00,,,0.00,Wunderground v.1.15,2013-08-03 19:34:00,
2013-08-03 12:39:00,77.4,56.7,29.91,SSW,198,5.0,13.0,49,0.00,,,0.00,Wunderground v.1.15,2013-08-03 19:39:00,
2013-08-03 12:44:00,77.9,56.6,29.91,South,186,8.0,9.0,48,0.00,,,0.00,Wunderground v.1.15,2013-08-03 19:44:00,
2013-08-03 12:49:00,78.0,56.7,29.91,South,189,5.0,12.0,48,0.00,,,0.00,Wunderground v.1.15,2013-08-03 19:49:00,
2013-08-03 12:54:00,78.4,57.1,29.91,SSE,147,3.0,9.0,48,0.00,,,0.00,Wunderground v.1.15,2013-08-03 19:54:00,
2013-08-03 12:59:00,79.3,57.3,29.91,SSW,200,8.0,11.0,47,0.00,,,0.00,Wunderground v.1.15,2013-08-03 19:59:00,
2013-08-03 13:04:00,79.2,56.6,29.91,SSE,151,7.0,11.0,46,0.00,,,0.00,Wunderground v.1.15,2013-08-03 20:04:00,
2013-08-03 13:09:00,80.1,56.8,29.91,South,184,5.0,13.0,45,0.00,,,0.00,Wunderground v.1.15,2013-08-03 20:09:00,
2013-08-03 13:14:00,80.1,56.8,29.91,SSW,198,5.0,10.0,45,0.00,,,0.00,Wunderground v.1.15,2013-08-03 20:14:00,
2013-08-03 13:19:00,79.4,56.8,29.91,South,180,9.0,11.0,46,0.00,,,0.00,Wunderground v.1.15,2013-08-03 20:19:00,
2013-08-03 13:24:00,79.4,56.8,29.91,SSW,192,4.0,10.0,46,0.00,,,0.00,Wunderground v.1.15,2013-08-03 20:24:00,
2013-08-03 13:29:00,79.8,56.6,29.91,South,189,8.0,11.0,45,0.00,,,0.00,Wunderground v.1.15,2013-08-03 20:29:00,
2013-08-03 13:34:00,80.1,56.2,29.91,South,173,2.0,10.0,44,0.00,,,0.00,Wunderground v.1.15,2013-08-03 20:34:00,
2013-08-03 13:39:00,80.9,57.6,29.91,SSW,205,3.0,10.0,45,0.00,,,0.00,Wunderground v.1.15,2013-08-03 20:39:00,
2013-08-03 13:44:00,81.7,57.0,29.90,SSW,209,7.0,8.0,43,0.00,,,0.00,Wunderground v.1.15,2013-08-03 20:44:00,
2013-08-03 13:49:00,82.0,56.0,29.90,SSE,166,4.0,9.0,41,0.00,,,0.00,Wunderground v.1.15,2013-08-03 20:49:00,
2013-08-03 13:54:00,82.3,55.6,29.90,SSW,196,3.0,9.0,40,0.00,,,0.00,Wunderground v.1.15,2013-08-03 20:54:00,
2013-08-03 13:59:00,83.3,56.5,29.90,SSW,197,6.0,9.0,40,0.00,,,0.00,Wunderground v.1.15,2013-08-03 20:59:00,
2013-08-03 14:04:00,82.9,56.1,29.90,SSW,207,3.0,10.0,40,0.00,,,0.00,Wunderground v.1.15,2013-08-03 21:04:00,
2013-08-03 14:09:00,83.3,55.8,29.90,SSW,202,5.0,10.0,39,0.00,,,0.00,Wunderground v.1.15,2013-08-03 21:09:00,
2013-08-03 14:14:00,83.9,55.6,29.90,South,172,6.0,9.0,38,0.00,,,0.00,Wunderground v.1.15,2013-08-03 21:14:00,
2013-08-03 14:19:00,84.2,55.8,29.90,SSE,162,10.0,10.0,38,0.00,,,0.00,Wunderground v.1.15,2013-08-03 21:19:00,
2013-08-03 14:24:00,84.1,55.0,29.90,SSW,196,7.0,10.0,37,0.00,,,0.00,Wunderground v.1.15,2013-08-03 21:24:00,
2013-08-03 14:29:00,83.4,55.1,29.90,SSW,195,4.0,11.0,38,0.00,,,0.00,Wunderground v.1.15,2013-08-03 21:29:00,
2013-08-03 14:34:00,84.1,55.7,29.89,SSW,196,3.0,8.0,38,0.00,,,0.00,Wunderground v.1.15,2013-08-03 21:34:00,
2013-08-03 14:39:00,84.1,55.0,29.89,South,190,5.0,10.0,37,0.00,,,0.00,Wunderground v.1.15,2013-08-03 21:39:00,
2013-08-03 14:44:00,84.2,54.4,29.89,South,182,7.0,12.0,36,0.00,,,0.00,Wunderground v.1.15,2013-08-03 21:44:00,
2013-08-03 14:49:00,84.7,54.8,29.89,South,188,6.0,12.0,36,0.00,,,0.00,Wunderground v.1.15,2013-08-03 21:49:00,
2013-08-03 14:54:00,84.6,54.7,29.89,SSW,198,6.0,8.0,36,0.00,,,0.00,Wunderground v.1.15,2013-08-03 21:54:00,
2013-08-03 14:59:00,85.7,54.9,29.89,South,191,5.0,8.0,35,0.00,,,0.00,Wunderground v.1.15,2013-08-03 21:59:00,
2013-08-03 15:04:00,85.6,54.0,29.89,South,186,6.0,10.0,34,0.00,,,0.00,Wunderground v.1.15,2013-08-03 22:04:00,
2013-08-03 15:10:00,86.3,54.6,29.88,South,185,6.0,11.0,34,0.00,,,0.00,Wunderground v.1.15,2013-08-03 22:10:00,
2013-08-03 15:15:00,85.9,53.5,29.88,South,190,6.0,11.0,33,0.00,,,0.00,Wunderground v.1.15,2013-08-03 22:15:00,
2013-08-03 15:20:00,85.9,54.3,29.88,SW,219,6.0,11.0,34,0.00,,,0.00,Wunderground v.1.15,2013-08-03 22:20:00,
2013-08-03 15:25:00,86.1,53.6,29.88,SSW,200,4.0,10.0,33,0.00,,,0.00,Wunderground v.1.15,2013-08-03 22:25:00,
2013-08-03 15:29:00,86.3,55.4,29.88,South,184,4.0,10.0,35,0.00,,,0.00,Wunderground v.1.15,2013-08-03 22:29:00,
2013-08-03 15:34:00,86.2,53.7,29.88,SSW,198,2.0,9.0,33,0.00,,,0.00,Wunderground v.1.15,2013-08-03 22:34:00,
2013-08-03 15:39:00,86.5,54.0,29.87,South,185,5.0,10.0,33,0.00,,,0.00,Wunderground v.1.15,2013-08-03 22:39:00,
2013-08-03 15:44:00,86.4,53.9,29.87,South,188,9.0,10.0,33,0.00,,,0.00,Wunderground v.1.15,2013-08-03 22:44:00,
2013-08-03 15:49:00,87.0,53.6,29.87,South,185,5.0,12.0,32,0.00,,,0.00,Wunderground v.1.15,2013-08-03 22:49:00,
2013-08-03 15:55:00,87.4,52.2,29.87,South,186,3.0,11.0,30,0.00,,,0.00,Wunderground v.1.15,2013-08-03 22:55:00,
2013-08-03 15:59:00,87.8,53.4,29.87,SSW,196,5.0,11.0,31,0.00,,,0.00,Wunderground v.1.15,2013-08-03 22:59:00,
2013-08-03 16:05:00,87.7,52.4,29.87,South,178,6.0,10.0,30,0.00,,,0.00,Wunderground v.1.15,2013-08-03 23:05:00,
2013-08-03 16:10:00,88.1,52.8,29.86,SSW,200,7.0,10.0,30,0.00,,,0.00,Wunderground v.1.15,2013-08-03 23:10:00,
2013-08-03 16:15:00,87.8,53.4,29.86,South,175,2.0,11.0,31,0.00,,,0.00,Wunderground v.1.15,2013-08-03 23:15:00,
2013-08-03 16:20:00,88.3,52.9,29.86,South,173,3.0,12.0,30,0.00,,,0.00,Wunderground v.1.15,2013-08-03 23:20:00,
2013-08-03 16:24:00,88.2,52.9,29.86,South,186,5.0,11.0,30,0.00,,,0.00,Wunderground v.1.15,2013-08-03 23:24:00,
2013-08-03 16:29:00,88.0,54.4,29.86,SSW,195,10.0,12.0,32,0.00,,,0.00,Wunderground v.1.15,2013-08-03 23:29:00,
2013-08-03 16:34:00,87.6,54.9,29.86,South,179,12.0,12.0,33,0.00,,,0.00,Wunderground v.1.15,2013-08-03 23:34:00,
2013-08-03 16:39:00,87.4,53.9,29.86,SW,215,10.0,14.0,32,0.00,,,0.00,Wunderground v.1.15,2013-08-03 23:39:00,
2013-08-03 16:44:00,87.1,53.7,29.85,South,180,3.0,12.0,32,0.00,,,0.00,Wunderground v.1.15,2013-08-03 23:44:00,
2013-08-03 16:50:00,87.1,53.7,29.85,South,189,5.0,12.0,32,0.00,,,0.00,Wunderground v.1.15,2013-08-03 23:50:00,
2013-08-03 16:55:00,87.0,54.4,29.85,SSW,198,4.0,12.0,33,0.00,,,0.00,Wunderground v.1.15,2013-08-03 23:55:00,
2013-08-03 17:00:00,87.3,54.7,29.85,South,190,6.0,6.0,33,0.00,,,0.00,Wunderground v.1.15,2013-08-04 00:00:00,
2013-08-03 17:05:00,87.2,55.4,29.85,South,186,3.0,11.0,34,0.00,,,0.00,Wunderground v.1.15,2013-08-04 00:05:00,
2013-08-03 17:10:00,87.4,54.8,29.85,SSW,197,5.0,7.0,33,0.00,,,0.00,Wunderground v.1.15,2013-08-04 00:10:00,
2013-08-03 17:15:00,87.2,53.7,29.85,SW,235,8.0,13.0,32,0.00,,,0.00,Wunderground v.1.15,2013-08-04 00:15:00,
2013-08-03 17:20:00,87.4,54.8,29.85,SW,214,3.0,6.0,33,0.00,,,0.00,Wunderground v.1.15,2013-08-04 00:20:00,
2013-08-03 17:25:00,87.0,55.2,29.85,SSW,202,4.0,12.0,34,0.00,,,0.00,Wunderground v.1.15,2013-08-04 00:25:00,
2013-08-03 17:30:00,87.0,56.0,29.84,SSW,194,3.0,6.0,35,0.00,,,0.00,Wunderground v.1.15,2013-08-04 00:30:00,
2013-08-03 17:35:00,86.9,56.7,29.84,SSE,155,4.0,12.0,36,0.00,,,0.00,Wunderground v.1.15,2013-08-04 00:35:00,
2013-08-03 17:40:00,86.9,56.7,29.84,South,182,5.0,8.0,36,0.00,,,0.00,Wunderground v.1.15,2013-08-04 00:40:00,
2013-08-03 17:45:00,86.7,57.3,29.84,SSW,196,7.0,11.0,37,0.00,,,0.00,Wunderground v.1.15,2013-08-04 00:45:00,
2013-08-03 17:50:00,86.6,57.2,29.84,SSW,200,10.0,12.0,37,0.00,,,0.00,Wunderground v.1.15,2013-08-04 00:50:00,
2013-08-03 17:55:00,86.2,57.6,29.84,SSW,208,4.0,12.0,38,0.00,,,0.00,Wunderground v.1.15,2013-08-04 00:55:00,
2013-08-03 18:00:00,86.0,57.4,29.84,SSW,192,5.0,10.0,38,0.00,,,0.00,Wunderground v.1.15,2013-08-04 01:00:00,
2013-08-03 18:05:00,85.7,57.2,29.84,SSW,207,7.0,14.0,38,0.00,,,0.00,Wunderground v.1.15,2013-08-04 01:05:00,
2013-08-03 18:10:00,85.4,57.6,29.84,SSW,194,4.0,6.0,39,0.00,,,0.00,Wunderground v.1.15,2013-08-04 01:10:00,
2013-08-03 18:15:00,85.3,57.5,29.83,SSW,196,6.0,10.0,39,0.00,,,0.00,Wunderground v.1.15,2013-08-04 01:15:00,
2013-08-03 18:20:00,85.0,57.3,29.84,SSW,197,7.0,9.0,39,0.00,,,0.00,Wunderground v.1.15,2013-08-04 01:20:00,
2013-08-03 18:25:00,84.9,57.2,29.84,South,189,7.0,11.0,39,0.00,,,0.00,Wunderground v.1.15,2013-08-04 01:25:00,
2013-08-03 18:30:00,84.7,57.0,29.84,South,173,4.0,6.0,39,0.00,,,0.00,Wunderground v.1.15,2013-08-04 01:30:00,
2013-08-03 18:35:00,84.4,57.4,29.84,South,188,4.0,8.0,40,0.00,,,0.00,Wunderground v.1.15,2013-08-04 01:35:00,
2013-08-03 18:40:00,84.2,57.3,29.83,South,170,5.0,11.0,40,0.00,,,0.00,Wunderground v.1.15,2013-08-04 01:40:00,
2013-08-03 18:45:00,83.8,56.9,29.83,South,171,7.0,11.0,40,0.00,,,0.00,Wunderground v.1.15,2013-08-04 01:45:00,
2013-08-03 18:50:00,83.5,57.3,29.83,SSW,194,8.0,8.0,41,0.00,,,0.00,Wunderground v.1.15,2013-08-04 01:50:00,
2013-08-03 18:55:00,83.2,57.1,29.83,South,191,4.0,10.0,41,0.00,,,0.00,Wunderground v.1.15,2013-08-04 01:55:00,
2013-08-03 19:00:00,83.0,56.9,29.83,South,186,3.0,7.0,41,0.00,,,0.00,Wunderground v.1.15,2013-08-04 02:00:00,
2013-08-03 19:05:00,82.3,56.2,29.83,SSE,162,4.0,10.0,41,0.00,,,0.00,Wunderground v.1.15,2013-08-04 02:05:00,
2013-08-03 19:10:00,81.6,56.3,29.83,South,186,7.0,11.0,42,0.00,,,0.00,Wunderground v.1.15,2013-08-04 02:10:00,
2013-08-03 19:15:00,80.8,56.2,29.83,South,175,11.0,15.0,43,0.00,,,0.00,Wunderground v.1.15,2013-08-04 02:15:00,
2013-08-03 19:20:00,79.6,55.8,29.83,SSW,192,11.0,14.0,44,0.00,,,0.00,Wunderground v.1.15,2013-08-04 02:20:00,
2013-08-03 19:25:00,78.6,55.5,29.83,South,185,6.0,14.0,45,0.00,,,0.00,Wunderground v.1.15,2013-08-04 02:25:00,
2013-08-03 19:30:00,77.8,56.0,29.83,South,190,4.0,10.0,47,0.00,,,0.00,Wunderground v.1.15,2013-08-04 02:30:00,
2013-08-03 19:35:00,77.2,55.4,29.83,SSW,196,7.0,13.0,47,0.00,,,0.00,Wunderground v.1.15,2013-08-04 02:35:00,
2013-08-03 19:40:00,76.7,55.5,29.83,SSW,192,7.0,8.0,48,0.00,,,0.00,Wunderground v.1.15,2013-08-04 02:40:00,
2013-08-03 19:45:00,76.1,55.5,29.83,South,180,4.0,15.0,49,0.00,,,0.00,Wunderground v.1.15,2013-08-04 02:45:00,
2013-08-03 19:50:00,75.4,55.5,29.83,SSW,202,5.0,7.0,50,0.00,,,0.00,Wunderground v.1.15,2013-08-04 02:50:00,
2013-08-03 19:55:00,74.7,55.4,29.83,South,190,5.0,11.0,51,0.00,,,0.00,Wunderground v.1.15,2013-08-04 02:55:00,
2013-08-03 20:00:00,74.2,55.4,29.83,South,190,4.0,5.0,52,0.00,,,0.00,Wunderground v.1.15,2013-08-04 03:00:00,
2013-08-03 20:05:00,73.7,55.5,29.84,SSW,198,4.0,9.0,53,0.00,,,0.00,Wunderground v.1.15,2013-08-04 03:05:00,
2013-08-03 20:10:00,73.2,55.0,29.84,South,176,2.0,8.0,53,0.00,,,0.00,Wunderground v.1.15,2013-08-04 03:10:00,
2013-08-03 20:15:00,72.5,54.9,29.84,South,190,9.0,13.0,54,0.00,,,0.00,Wunderground v.1.15,2013-08-04 03:15:00,
2013-08-03 20:20:00,71.9,54.9,29.84,SSW,202,7.0,7.0,55,0.00,,,0.00,Wunderground v.1.15,2013-08-04 03:20:00,
2013-08-03 20:25:00,71.4,54.9,29.84,South,185,5.0,11.0,56,0.00,,,0.00,Wunderground v.1.15,2013-08-04 03:25:00,
2013-08-03 20:30:00,71.1,54.6,29.84,South,185,8.0,8.0,56,0.00,,,0.00,Wunderground v.1.15,2013-08-04 03:30:00,
2013-08-03 20:35:00,70.7,54.7,29.85,SSE,161,5.0,10.0,57,0.00,,,0.00,Wunderground v.1.15,2013-08-04 03:35:00,
2013-08-03 20:40:00,70.2,54.2,29.85,SSE,161,5.0,12.0,57,0.00,,,0.00,Wunderground v.1.15,2013-08-04 03:40:00,
2013-08-03 20:45:00,69.7,54.3,29.85,SSW,212,5.0,12.0,58,0.00,,,0.00,Wunderground v.1.15,2013-08-04 03:45:00,
2013-08-03 20:50:00,69.5,54.5,29.85,SSW,194,6.0,6.0,59,0.00,,,0.00,Wunderground v.1.15,2013-08-04 03:50:00,
2013-08-03 20:55:00,69.3,54.4,29.85,South,187,3.0,10.0,59,0.00,,,0.00,Wunderground v.1.15,2013-08-04 03:55:00,
2013-08-03 21:00:00,69.0,54.5,29.85,South,182,5.0,9.0,60,0.00,,,0.00,Wunderground v.1.15,2013-08-04 04:00:00,
2013-08-03 21:01:00,69.0,54.5,29.85,SSW,213,9.0,9.0,60,0.00,,,0.00,Wunderground v.1.15,2013-08-04 04:01:00,
2013-08-03 21:07:00,68.8,54.3,29.85,SSE,159,9.0,10.0,60,0.00,,,0.00,Wunderground v.1.15,2013-08-04 04:07:00,
2013-08-03 21:12:00,68.5,54.5,29.85,SSE,157,7.0,10.0,61,0.00,,,0.00,Wunderground v.1.15,2013-08-04 04:12:00,
2013-08-03 21:17:00,68.2,54.2,29.86,SSW,202,6.0,10.0,61,0.00,,,0.00,Wunderground v.1.15,2013-08-04 04:17:00,
2013-08-03 21:21:00,67.8,54.3,29.86,SSW,196,5.0,8.0,62,0.00,,,0.00,Wunderground v.1.15,2013-08-04 04:21:00,
2013-08-03 21:27:00,67.5,54.5,29.86,South,174,6.0,10.0,63,0.00,,,0.00,Wunderground v.1.15,2013-08-04 04:27:00,
2013-08-03 21:32:00,67.2,54.2,29.86,South,184,6.0,13.0,63,0.00,,,0.00,Wunderground v.1.15,2013-08-04 04:32:00,
2013-08-03 21:37:00,66.8,54.2,29.86,SSW,207,4.0,13.0,64,0.00,,,0.00,Wunderground v.1.15,2013-08-04 04:37:00,
2013-08-03 21:42:00,66.4,54.3,29.87,SSW,192,5.0,11.0,65,0.00,,,0.00,Wunderground v.1.15,2013-08-04 04:42:00,
2013-08-03 21:47:00,65.9,54.2,29.87,SSW,206,8.0,12.0,66,0.00,,,0.00,Wunderground v.1.15,2013-08-04 04:47:00,
2013-08-03 21:52:00,65.6,54.3,29.87,South,190,4.0,8.0,67,0.00,,,0.00,Wunderground v.1.15,2013-08-04 04:52:00,
2013-08-03 21:57:00,65.3,54.1,29.87,SSW,199,6.0,10.0,67,0.00,,,0.00,Wunderground v.1.15,2013-08-04 04:57:00,
2013-08-03 22:02:00,65.2,54.4,29.87,SSW,198,5.0,10.0,68,0.00,,,0.00,Wunderground v.1.15,2013-08-04 05:02:00,
2013-08-03 22:07:00,65.1,54.3,29.87,SSW,206,6.0,10.0,68,0.00,,,0.00,Wunderground v.1.15,2013-08-04 05:07:00,
2013-08-03 22:12:00,64.9,54.1,29.87,SSW,196,7.0,9.0,68,0.00,,,0.00,Wunderground v.1.15,2013-08-04 05:12:00,
2013-08-03 22:17:00,64.9,54.1,29.87,SSW,200,2.0,9.0,68,0.00,,,0.00,Wunderground v.1.15,2013-08-04 05:17:00,
2013-08-03 22:22:00,65.0,54.2,29.87,SSW,197,5.0,6.0,68,0.00,,,0.00,Wunderground v.1.15,2013-08-04 05:22:00,
2013-08-03 22:27:00,65.0,54.2,29.87,South,188,4.0,7.0,68,0.00,,,0.00,Wunderground v.1.15,2013-08-04 05:27:00,
2013-08-03 22:32:00,65.0,54.2,29.87,SSW,192,4.0,7.0,68,0.00,,,0.00,Wunderground v.1.15,2013-08-04 05:32:00,
2013-08-03 22:37:00,65.0,54.2,29.87,SSW,193,4.0,8.0,68,0.00,,,0.00,Wunderground v.1.15,2013-08-04 05:37:00,
2013-08-03 22:42:00,64.8,54.0,29.87,SSW,209,5.0,8.0,68,0.00,,,0.00,Wunderground v.1.15,2013-08-04 05:42:00,
2013-08-03 22:47:00,64.5,53.7,29.87,SSW,205,7.0,9.0,68,0.00,,,0.00,Wunderground v.1.15,2013-08-04 05:47:00,
2013-08-03 22:52:00,64.1,53.7,29.87,SSW,207,7.0,11.0,69,0.00,,,0.00,Wunderground v.1.15,2013-08-04 05:52:00,
2013-08-03 22:57:00,63.7,53.7,29.87,South,187,7.0,11.0,70,0.00,,,0.00,Wunderground v.1.15,2013-08-04 05:57:00,
2013-08-03 23:02:00,63.4,53.4,29.87,South,179,5.0,9.0,70,0.00,,,0.00,Wunderground v.1.15,2013-08-04 06:02:00,
2013-08-03 23:07:00,63.1,53.5,29.87,South,190,6.0,12.0,71,0.00,,,0.00,Wunderground v.1.15,2013-08-04 06:07:00,
2013-08-03 23:12:00,62.9,53.4,29.87,SW,218,8.0,11.0,71,0.00,,,0.00,Wunderground v.1.15,2013-08-04 06:12:00,
2013-08-03 23:17:00,62.6,53.4,29.87,SSW,199,7.0,11.0,72,0.00,,,0.00,Wunderground v.1.15,2013-08-04 06:17:00,
2013-08-03 23:22:00,62.4,53.3,29.87,SSW,196,4.0,11.0,72,0.00,,,0.00,Wunderground v.1.15,2013-08-04 06:22:00,
2013-08-03 23:27:00,62.2,53.4,29.87,SSW,209,7.0,11.0,73,0.00,,,0.00,Wunderground v.1.15,2013-08-04 06:27:00,
2013-08-03 23:32:00,62.0,53.2,29.87,South,185,7.0,7.0,73,0.00,,,0.00,Wunderground v.1.15,2013-08-04 06:32:00,
2013-08-03 23:37:00,61.8,53.1,29.87,South,180,4.0,12.0,73,0.00,,,0.00,Wunderground v.1.15,2013-08-04 06:37:00,
2013-08-03 23:43:00,61.7,53.0,29.87,SSW,205,6.0,12.0,73,0.00,,,0.00,Wunderground v.1.15,2013-08-04 06:43:00,
2013-08-03 23:48:00,61.6,52.9,29.88,SSW,192,7.0,16.0,73,0.00,,,0.00,Wunderground v.1.15,2013-08-04 06:48:00,
2013-08-03 23:53:00,61.5,53.1,29.87,South,188,11.0,13.0,74,0.00,,,0.00,Wunderground v.1.15,2013-08-04 06:53:00,
2013-08-03 23:58:00,61.4,53.0,29.88,SSW,198,7.0,13.0,74,0.00,,,0.00,Wunderground v.1.15,2013-08-04 06:58:00,